Total_Precipitation_Accumulation
0.74 0.73 0.77 0.80 0.83 0.89 0.96 0.98 1.03 1.09 1.16 1.17 1.14 1.10 1.01 0.95 0.94 0.97 0.98 1.08 1.09 1.08 1.16 1.19 1.26 1.37 1.51 1.57 1.60 1.66 1.86 2.02 1.89 1.80 1.67 1.54 1.39 1.23 1.08 1.06 1.06 1.00 0.83
0.72 0.72 0.76 0.79 0.79 0.79 0.82 0.81 0.82 0.88 0.91 0.93 0.93 0.99 1.02 1.00 0.98 0.96 0.93 0.91 0.96 0.99 1.05 1.15 1.21 1.34 1.45 1.44 1.52 1.60 1.79 2.00 2.07 2.20 2.24 2.00 1.68 1.45 1.34 1.19 0.97 0.86 0.85
0.66 0.71 0.77 0.77 0.75 0.79 0.82 0.82 0.80 0.80 0.82 0.82 0.83 0.86 0.88 0.97 1.07 1.10 1.07 1.07 1.10 1.02 1.08 1.17 1.16 1.20 1.28 1.31 1.42 1.55 1.70 1.85 2.02 2.13 2.26 2.08 1.90 1.60 1.59 1.40 1.15 1.06 0.85
0.57 0.72 0.85 0.91 0.92 0.92 0.88 0.88 0.86 0.82 0.84 0.83 0.78 0.79 0.82 0.83 0.90 1.04 1.10 1.10 1.07 1.02 1.02 1.02 0.99 1.00 1.08 1.16 1.23 1.39 1.54 1.68 1.80 1.85 2.00 2.07 2.09 2.05 1.97 1.74 1.56 1.36 1.10
0.59 0.80 0.91 0.90 0.85 0.84 0.83 0.89 0.87 0.79 0.77 0.81 0.74 0.71 0.77 0.81 0.79 0.81 0.93 0.96 0.96 0.94 0.96 0.89 0.77 0.78 0.82 0.86 0.92 1.15 1.31 1.45 1.60 1.71 1.85 2.03 2.14 2.25 2.11 1.98 1.86 1.73 1.48
0.55 0.67 0.71 0.76 0.78 0.75 0.70 0.68 0.71 0.73 0.73 0.73 0.68 0.66 0.67 0.61 0.62 0.59 0.61 0.70 0.76 0.78 0.82 0.83 0.75 0.65 0.60 0.62 0.65 0.77 0.95 1.11 1.34 1.59 1.78 1.99 2.07 2.04 2.15 2.15 2.08 1.94 1.82
0.48 0.53 0.61 0.72 0.74 0.68 0.59 0.63 0.70 0.72 0.71 0.69 0.64 0.60 0.60 0.58 0.47 0.41 0.41 0.51 0.61 0.64 0.68 0.74 0.65 0.58 0.57 0.53 0.57 0.65 0.70 0.78 0.91 1.22 1.49 1.61 1.63 1.62 1.85 2.05 2.05 1.97 1.95
0.49 0.57 0.62 0.73 0.74 0.69 0.67 0.67 0.68 0.68 0.68 0.69 0.64 0.61 0.64 0.60 0.46 0.38 0.34 0.35 0.48 0.58 0.61 0.66 0.68 0.68 0.61 0.59 0.58 0.63 0.60 0.60 0.63 0.71 0.86 1.01 1.18 1.32 1.53 1.83 2.07 2.05 2.08
0.50 0.62 0.72 0.80 0.80 0.75 0.73 0.71 0.69 0.67 0.63 0.63 0.65 0.66 0.67 0.64 0.46 0.36 0.34 0.41 0.53 0.57 0.60 0.60 0.63 0.68 0.62 0.52 0.53 0.58 0.61 0.62 0.56 0.58 0.62 0.74 0.89 1.04 1.22 1.46 1.72 1.98 2.25
0.60 0.69 0.76 0.81 0.84 0.81 0.80 0.78 0.74 0.73 0.66 0.62 0.64 0.67 0.67 0.71 0.51 0.32 0.29 0.42 0.59 0.65 0.73 0.72 0.58 0.54 0.53 0.41 0.44 0.53 0.54 0.55 0.51 0.54 0.57 0.60 0.66 0.79 0.92 1.12 1.29 1.51 1.77
0.64 0.72 0.81 0.89 0.86 0.83 0.86 0.88 0.86 0.83 0.82 0.75 0.68 0.68 0.70 0.66 0.52 0.33 0.28 0.40 0.60 0.72 0.75 0.77 0.69 0.49 0.41 0.36 0.35 0.43 0.48 0.47 0.53 0.60 0.66 0.68 0.67 0.71 0.76 0.87 1.08 1.19 1.26
0.69 0.78 0.89 0.96 0.81 0.75 0.91 0.95 0.95 0.95 0.95 0.91 0.85 0.76 0.74 0.71 0.53 0.38 0.31 0.34 0.48 0.69 0.81 0.80 0.67 0.48 0.40 0.37 0.33 0.36 0.35 0.34 0.43 0.54 0.62 0.67 0.68 0.68 0.74 0.83 0.95 1.08 1.19
0.77 0.88 0.92 0.94 0.98 1.00 0.98 0.99 1.01 1.00 1.02 1.00 0.97 0.91 0.86 0.85 0.75 0.48 0.38 0.36 0.42 0.57 0.69 0.73 0.65 0.46 0.40 0.41 0.41 0.35 0.31 0.31 0.39 0.45 0.51 0.57 0.59 0.64 0.74 0.88 1.02 1.07 1.12
0.89 0.94 0.98 1.01 1.02 1.07 1.14 1.12 1.08 1.04 1.06 1.07 1.01 0.99 0.98 0.98 0.92 0.74 0.60 0.51 0.50 0.52 0.58 0.61 0.64 0.57 0.46 0.49 0.50 0.41 0.35 0.40 0.43 0.43 0.47 0.53 0.58 0.65 0.75 0.82 0.91 1.00 1.09
0.99 1.01 1.05 1.07 1.10 1.14 1.16 1.11 1.03 1.00 0.90 0.94 0.96 0.95 0.97 0.98 0.87 0.76 0.73 0.71 0.66 0.63 0.62 0.71 0.72 0.76 0.68 0.64 0.65 0.59 0.53 0.55 0.53 0.50 0.50 0.54 0.59 0.64 0.69 0.76 0.82 0.87 0.94
1.10 1.03 1.02 1.01 1.05 1.10 1.10 0.96 0.74 0.67 0.61 0.58 0.63 0.66 0.68 0.65 0.58 0.56 0.60 0.60 0.60 0.63 0.63 0.76 0.85 0.88 0.85 0.84 0.82 0.78 0.75 0.69 0.65 0.64 0.60 0.57 0.59 0.63 0.63 0.68 0.75 0.78 0.78
1.08 1.03 0.97 0.92 0.93 0.93 0.98 1.01 0.92 0.77 0.67 0.60 0.49 0.46 0.49 0.45 0.41 0.43 0.50 0.56 0.58 0.62 0.65 0.77 0.89 0.92 0.92 0.93 0.88 0.83 0.85 0.78 0.73 0.73 0.70 0.66 0.65 0.67 0.66 0.66 0.71 0.76 0.75
1.00 0.92 0.89 0.89 0.88 0.84 0.86 0.90 0.91 0.95 0.93 0.81 0.60 0.49 0.45 0.37 0.33 0.35 0.44 0.55 0.62 0.63 0.72 0.83 0.94 0.92 0.95 0.97 0.91 0.86 0.87 0.82 0.75 0.72 0.70 0.68 0.66 0.69 0.70 0.67 0.65 0.67 0.69
1.03 0.91 0.85 0.82 0.82 0.82 0.81 0.81 0.83 0.90 0.95 0.93 0.78 0.66 0.53 0.39 0.35 0.38 0.42 0.51 0.63 0.71 0.80 0.89 0.90 0.89 0.92 0.90 0.84 0.81 0.83 0.79 0.74 0.70 0.68 0.66 0.65 0.69 0.71 0.70 0.66 0.69 0.69
1.04 0.90 0.84 0.78 0.76 0.80 0.84 0.81 0.79 0.87 0.91 0.90 0.85 0.71 0.52 0.44 0.46 0.48 0.48 0.53 0.63 0.71 0.77 0.81 0.79 0.77 0.77 0.77 0.75 0.74 0.79 0.78 0.75 0.71 0.66 0.63 0.63 0.66 0.68 0.68 0.65 0.63 0.63
0.99 0.90 0.79 0.73 0.71 0.73 0.78 0.79 0.75 0.80 0.84 0.81 0.73 0.60 0.45 0.42 0.48 0.53 0.56 0.57 0.61 0.65 0.68 0.72 0.74 0.70 0.65 0.66 0.65 0.65 0.71 0.72 0.68 0.63 0.58 0.57 0.57 0.63 0.63 0.61 0.63 0.60 0.60
0.99 0.96 0.86 0.77 0.72 0.70 0.71 0.75 0.76 0.77 0.77 0.75 0.65 0.51 0.45 0.44 0.48 0.51 0.51 0.50 0.51 0.55 0.59 0.67 0.70 0.68 0.64 0.64 0.60 0.56 0.57 0.56 0.55 0.54 0.52 0.51 0.54 0.59 0.59 0.59 0.61 0.59 0.58
0.93 0.93 0.87 0.77 0.69 0.67 0.68 0.71 0.76 0.73 0.68 0.68 0.61 0.49 0.45 0.49 0.47 0.48 0.47 0.45 0.45 0.49 0.52 0.56 0.58 0.59 0.57 0.54 0.52 0.49 0.46 0.47 0.47 0.45 0.44 0.46 0.47 0.52 0.52 0.52 0.57 0.58 0.56
0.88 0.88 0.83 0.74 0.68 0.66 0.66 0.69 0.68 0.59 0.52 0.53 0.54 0.47 0.47 0.49 0.46 0.43 0.37 0.37 0.40 0.39 0.38 0.39 0.39 0.39 0.41 0.41 0.42 0.41 0.40 0.38 0.41 0.42 0.41 0.42 0.43 0.44 0.45 0.48 0.53 0.56 0.55
0.84 0.84 0.81 0.75 0.69 0.62 0.60 0.61 0.59 0.53 0.47 0.44 0.45 0.44 0.45 0.44 0.42 0.37 0.32 0.34 0.37 0.36 0.31 0.29 0.30 0.31 0.31 0.30 0.29 0.29 0.30 0.30 0.33 0.36 0.36 0.38 0.42 0.47 0.45 0.48 0.52 0.56 0.55
0.79 0.77 0.73 0.69 0.62 0.56 0.54 0.55 0.52 0.44 0.40 0.36 0.36 0.38 0.38 0.39 0.40 0.37 0.32 0.33 0.34 0.32 0.28 0.25 0.26 0.27 0.26 0.23 0.21 0.21 0.22 0.24 0.27 0.29 0.30 0.32 0.41 0.47 0.47 0.43 0.43 0.49 0.50